Overview Statistics Trail Chart Weather Telemetry Raw packets
 

This is the latest recevied weather packets stored in our database for station/object DB0KE-10. If no packets are shown the sender has not sent any weather packets the latest 10 day(s).

<< 5 6 7 8 9 10 11 >>
Time Temp. Humidity Pressure Rain* Wind** Luminosity Snow
1787944404 29.44° C 40% 1023.6 hPa - - - -
1787943503 29.44° C 40% 1023.6 hPa - - - -
1787942606 28.89° C 40% 1023.6 hPa - - - -
1787941706 28.33° C 40% 1023.6 hPa - - - -
1787940806 27.78° C 41% 1023.5 hPa - - - -
1787939911 26.67° C 42% 1023.1 hPa - - - -
1787939006 26.67° C 43% 1023 hPa - - - -
1787938106 26.67° C 43% 1022.6 hPa - - - -
1787937206 26.67° C 43% 1022.5 hPa - - - -
1787936305 26.67° C 44% 1022.2 hPa - - - -
1787935405 26.67° C 45% 1022.4 hPa - - - -
1787934505 26.67° C 44% 1022.6 hPa - - - -
1787933605 26.67° C 44% 1022 hPa - - - -
1787932705 26.67° C 45% 1022.2 hPa - - - -
1787931805 26.67° C 44% 1022.2 hPa - - - -
1787930905 26.67° C 44% 1022.4 hPa - - - -
1787930005 26.67° C 45% 1022.3 hPa - - - -
1787929105 26.67° C 44% 1022.4 hPa - - - -
1787928205 27.22° C 44% 1022.1 hPa - - - -
1787927305 27.22° C 44% 1022.6 hPa - - - -
1787926403 27.22° C 44% 1023 hPa - - - -
1787925503 27.22° C 44% 1022.2 hPa - - - -
1787924603 27.22° C 46% 1022.5 hPa - - - -
1787923703 27.22° C 45% 1022 hPa - - - -
1787922803 27.22° C 45% 1022.2 hPa - - - -

* Rain since midnight (hover to see other rain measurements)
** Current wind speed in m/s (hover to see current wind gust speed)